Change the Weather History Date:

Friday, December 6, 2013

  Actual Average Record
Temperature  
Mean Temperature -12 °F -  
Max Temperature -9 °F 38 °F 61 °F (1939)
Min Temperature -16 °F 17 °F -27 °F (1972)
Degree Days  
Heating Degree Days 78    
Moisture  
Dew Point -16 °F    
Average Humidity 90    
Maximum Humidity 100    
Minimum Humidity 77    
Precipitation  
Precipitation 0.00 in - - ()
Sea Level Pressure  
Sea Level Pressure 30.11 in    
Wind  
Wind Speed 2 mph (NE)    
Max Wind Speed 8 mph    
Max Gust Speed -    
Visibility 10 miles    
Events      
Averages and records for this station are not official NWS values.
T = Trace of Precipitation, MM = Missing Value Source: NWS Daily Summary

Daily Weather History Graph

Daily Weather History Graph

Search for Another Location

Airport or City:

Trip Planner

Search our weather history database for the weather conditions in past years. The results will help you decide how hot, cold, wet, or windy it might be!

Date:

Astronomy

Dec. 06, 2013 Rise Set
Actual Time 7:38 AM MST 4:36 PM MST
Civil Twilight 7:05 AM MST 5:09 PM MST
Nautical Twilight 6:28 AM MST 5:45 PM MST
Astronomical Twilight 5:53 AM MST 6:21 PM MST
Moon 10:40 AM MST (12/6) 9:18 PM MST (12/6)
Length of Visible Light 10h 04m
Length of Day
8h 58m
Waxing Crescent, 20% of the Moon is Illuminated
Dec 6
Waxing Crescent
Dec 9
First Quarter
Dec 17
Full
Dec 25
Last Quarter
Jan 1
New

Hourly Weather History & Observations

Time (MST) Temp. Windchill Dew Point Humidity Pressure Visibility Wind Dir Wind Speed Gust Speed Precip Events Conditions
12:15 AM -9.4 °F - -11.2 °F 92% 30.05 in 10.0 mi Calm Calm - N/A   Clear
12:35 AM -11.2 °F - -13.0 °F 92% 30.05 in 10.0 mi Calm Calm - N/A   Scattered Clouds
12:55 AM -11.2 °F - -13.0 °F 92% 30.05 in 10.0 mi Calm Calm - N/A   Overcast
1:15 AM -11.2 °F - -16.6 °F 77% 30.05 in 10.0 mi Calm Calm - N/A   Overcast
1:35 AM -14.8 °F - -16.6 °F 92% 30.05 in 10.0 mi Calm Calm - N/A   Mostly Cloudy
1:55 AM -13.0 °F -22.7 °F -14.8 °F 92% 30.05 in 10.0 mi South 3.5 mph - N/A   Clear
2:15 AM -14.8 °F -27.2 °F -18.4 °F 84% 30.06 in 10.0 mi South 4.6 mph - N/A   Clear
2:35 AM -14.8 °F -27.2 °F -18.4 °F 84% 30.06 in 10.0 mi South 4.6 mph - N/A   Clear
2:55 AM -14.8 °F - -16.6 °F 92% 30.06 in 10.0 mi Calm Calm - N/A   Mostly Cloudy
3:15 AM -13.0 °F - -14.8 °F 92% 30.07 in 10.0 mi Calm Calm - N/A   Mostly Cloudy
3:35 AM -11.2 °F - -13.0 °F 92% 30.07 in 10.0 mi Calm Calm - N/A   Partly Cloudy
3:55 AM -11.2 °F -27.8 °F -14.8 °F 84% 30.07 in 10.0 mi NE 8.1 mph - N/A   Scattered Clouds
4:15 AM -13.0 °F -25.1 °F -13.0 °F 100% 30.08 in 10.0 mi NNE 4.6 mph - N/A   Scattered Clouds
4:35 AM -14.8 °F -24.8 °F -18.4 °F 84% 30.08 in 10.0 mi NNE 3.5 mph - N/A   Clear
4:55 AM -14.8 °F - -14.8 °F 100% 30.08 in 10.0 mi Calm Calm - N/A   Scattered Clouds
5:15 AM -14.8 °F - -16.6 °F 92% 30.09 in 10.0 mi Calm Calm - N/A   Mostly Cloudy
5:35 AM -13.0 °F - -14.8 °F 92% 30.09 in 10.0 mi Calm Calm - N/A   Overcast
5:55 AM -13.0 °F - -13.0 °F 100% 30.09 in 10.0 mi Calm Calm - N/A   Scattered Clouds
6:15 AM -13.0 °F - -14.8 °F 92% 30.10 in 10.0 mi Calm Calm - N/A   Partly Cloudy
6:35 AM -13.0 °F - -16.6 °F 84% 30.10 in 10.0 mi Calm Calm - N/A   Clear
6:55 AM -14.8 °F - -18.4 °F 84% 30.10 in 9.0 mi Calm Calm - N/A   Clear
7:15 AM -14.8 °F -30.8 °F -16.6 °F 92% 30.11 in 10.0 mi NE 6.9 mph - N/A   Clear
7:35 AM -14.8 °F -29.1 °F -18.4 °F 84% 30.11 in 10.0 mi NE 5.8 mph - N/A   Clear
7:55 AM -16.6 °F -29.3 °F -18.4 °F 92% 30.11 in 10.0 mi NE 4.6 mph - N/A   Clear
8:15 AM -16.6 °F -29.3 °F -16.6 °F 100% 30.12 in 10.0 mi NE 4.6 mph - N/A   Clear
8:35 AM -14.8 °F - -18.4 °F 84% 30.13 in 10.0 mi Calm Calm - N/A   Clear
8:55 AM -14.8 °F - -14.8 °F 100% 30.14 in 8.0 mi Calm Calm - N/A   Clear
9:15 AM -14.8 °F - -16.6 °F 92% 30.14 in 10.0 mi Calm Calm - N/A   Mostly Cloudy
9:35 AM -14.8 °F - -16.6 °F 92% 30.15 in 10.0 mi Calm Calm - N/A   Overcast
9:55 AM -14.8 °F - -14.8 °F 100% 30.15 in 6.0 mi Calm Calm - N/A   Overcast
10:15 AM -13.0 °F - -14.8 °F 92% 30.15 in 7.0 mi Calm Calm - N/A   Overcast
10:35 AM -11.2 °F - -11.2 °F 100% 30.16 in 9.0 mi Calm Calm - N/A   Overcast
10:55 AM -11.2 °F -20.6 °F -14.8 °F 84% 30.16 in 10.0 mi NE 3.5 mph - N/A   Scattered Clouds
11:15 AM -11.2 °F -20.6 °F -11.2 °F 100% 30.15 in 10.0 mi NNE 3.5 mph - N/A   Scattered Clouds
11:35 AM -11.2 °F -20.6 °F -11.2 °F 100% 30.14 in 8.0 mi NE 3.5 mph - N/A   Partly Cloudy
12:15 PM -9.4 °F -22.7 °F -11.2 °F 92% 30.13 in 10.0 mi NE 5.8 mph - N/A   Overcast
12:35 PM -9.4 °F -22.7 °F -11.2 °F 92% 30.12 in 10.0 mi NE 5.8 mph - N/A   Scattered Clouds
12:55 PM -9.4 °F -24.3 °F -11.2 °F 92% 30.12 in 10.0 mi NNE 6.9 mph - N/A   Clear
1:15 PM -9.4 °F -24.3 °F -14.8 °F 77% 30.11 in 10.0 mi North 6.9 mph - N/A   Clear
1:35 PM -9.4 °F -24.3 °F - N/A% 30.11 in 10.0 mi NNE 6.9 mph - N/A   Clear
1:55 PM -9.4 °F -24.3 °F -11.2 °F 92% 30.10 in 10.0 mi NNE 6.9 mph - N/A   Clear
2:15 PM -9.4 °F -24.3 °F -13.0 °F 84% 30.10 in 10.0 mi NNE 6.9 mph - N/A   Clear
2:35 PM -9.4 °F -24.3 °F -14.8 °F 77% 30.10 in 10.0 mi NNE 6.9 mph - N/A   Clear
2:55 PM -11.2 °F -27.8 °F -13.0 °F 92% 30.10 in 10.0 mi NNE 8.1 mph - N/A   Clear
3:15 PM -11.2 °F -26.4 °F -14.8 °F 84% 30.11 in 10.0 mi NNE 6.9 mph - N/A   Clear
3:35 PM -11.2 °F -26.4 °F -16.6 °F 77% 30.11 in 10.0 mi NNE 6.9 mph - N/A   Mostly Cloudy
3:55 PM -11.2 °F -26.4 °F -14.8 °F 84% 30.12 in 10.0 mi NE 6.9 mph - N/A   Overcast
4:15 PM -13.0 °F -28.6 °F -16.6 °F 84% 30.12 in 9.0 mi NE 6.9 mph - N/A   Overcast
4:35 PM -14.8 °F -30.8 °F -18.4 °F 84% 30.12 in 5.0 mi NE 6.9 mph - N/A   Overcast
4:55 PM -14.8 °F -29.1 °F -14.8 °F 100% 30.12 in 8.0 mi NE 5.8 mph - N/A   Overcast
5:15 PM -14.8 °F -29.1 °F -18.4 °F 84% 30.12 in 9.0 mi NE 5.8 mph - N/A   Overcast
5:35 PM -16.6 °F -29.3 °F -16.6 °F 100% 30.13 in 10.0 mi NNE 4.6 mph - N/A   Overcast
5:55 PM -16.6 °F -29.3 °F -18.4 °F 92% 30.14 in 10.0 mi NNE 4.6 mph - N/A   Overcast
6:15 PM -14.8 °F -27.2 °F -14.8 °F 100% 30.14 in 10.0 mi NNE 4.6 mph - N/A   Overcast
6:35 PM -14.8 °F -24.8 °F -18.4 °F 84% 30.14 in 9.0 mi NNE 3.5 mph - N/A   Overcast
6:55 PM -14.8 °F -27.2 °F -16.6 °F 92% 30.14 in 10.0 mi NNE 4.6 mph - N/A   Overcast
7:15 PM -14.8 °F -29.1 °F -18.4 °F 84% 30.14 in 10.0 mi NNE 5.8 mph - N/A   Overcast
7:35 PM -14.8 °F -27.2 °F -18.4 °F 84% 30.14 in 10.0 mi NNE 4.6 mph - N/A   Overcast
7:55 PM -14.8 °F - -16.6 °F 92% 30.15 in 10.0 mi Calm Calm - N/A   Overcast
8:15 PM -14.8 °F -24.8 °F -18.4 °F 84% 30.15 in 10.0 mi NNE 3.5 mph - N/A   Overcast
8:35 PM -14.8 °F -29.1 °F -16.6 °F 92% 30.15 in 10.0 mi North 5.8 mph - N/A   Overcast
8:55 PM -14.8 °F - -16.6 °F 92% 30.15 in 10.0 mi Calm Calm - N/A   Overcast
9:15 PM -14.8 °F - -16.6 °F 92% 30.15 in 7.0 mi Calm Calm - N/A   Overcast
9:35 PM -14.8 °F - -16.6 °F 92% 30.15 in 9.0 mi Calm Calm - N/A   Overcast
9:55 PM -14.8 °F - -16.6 °F 92% 30.14 in 10.0 mi Calm Calm - N/A   Overcast
10:15 PM -14.8 °F - -16.6 °F 92% 30.14 in 10.0 mi Calm Calm - N/A   Overcast
10:35 PM -14.8 °F - -16.6 °F 92% 30.13 in 10.0 mi Calm Calm - N/A   Overcast
10:55 PM -14.8 °F - -16.6 °F 92% 30.13 in 10.0 mi Calm Calm - N/A   Overcast
11:15 PM -14.8 °F - -16.6 °F 92% 30.13 in 10.0 mi Calm Calm - N/A   Overcast
11:35 PM -14.8 °F -30.8 °F -18.4 °F 84% 30.13 in 10.0 mi South 6.9 mph - N/A   Overcast
11:55 PM -16.6 °F -26.8 °F -20.2 °F 84% 30.13 in 10.0 mi SSE 3.5 mph - N/A   Overcast